Vorticity
4 8 5 5 2 4 4 4 5 5 4 4 5 4 7 6 6 3 9 9 6 9 9 5 2 3 4 6 7 6 6 5 5 5 6 7 8 8 8 7 6 6 6
5 5 5 6 8 6 9 6 7 5 4 4 6 7 8 7 8 7 8 7 7 6 8 10 5 3 6 5 6 7 7 4 4 5 5 6 7 8 9 8 8 6 7
6 5 5 5 7 6 4 6 5 5 7 3 13 15 12 10 11 10 8 8 6 4 7 7 6 5 4 6 5 6 7 7 6 5 5 5 5 6 7 7 8 8 7
6 7 8 5 4 2 5 3 6 9 10 13 13 11 11 11 11 15 16 13 10 6 5 5 7 3 5 2 5 7 5 7 6 7 6 6 6 6 6 6 6 6 6
8 4 5 4 8 5 3 9 10 13 11 10 13 12 15 16 13 10 9 12 17 16 9 5 4 6 5 5 4 4 7 6 7 6 6 7 7 7 5 5 5 5 4
7 7 5 9 -5 7 13 11 10 8 8 11 12 11 8 8 9 12 11 9 9 14 18 11 5 1 4 6 7 4 3 5 6 5 6 6 6 7 6 5 5 5 6
9 13 7 -1 13 9 11 11 10 9 9 10 11 9 4 5 10 11 10 9 9 9 11 19 15 9 5 3 6 6 5 5 6 5 3 5 6 6 6 6 5 5 5
18 18 16 15 12 10 10 10 9 11 10 10 11 11 9 6 6 9 11 10 9 8 9 9 10 17 16 8 4 4 6 4 5 5 6 5 4 4 6 6 6 5 5
11 10 9 9 9 9 8 10 11 12 11 11 10 10 12 11 10 8 7 6 7 8 8 7 10 13 14 17 15 11 8 6 4 4 6 5 5 5 5 6 6 6 5
14 13 12 11 10 10 11 11 12 10 9 9 10 9 8 10 11 8 6 8 9 7 5 8 8 6 7 10 9 13 13 13 6 7 5 7 5 5 5 6 6 7 6
7 14 12 12 12 13 12 12 10 9 8 8 9 8 8 9 10 11 14 12 10 8 7 6 6 6 5 8 10 11 9 6 9 16 5 9 3 7 5 5 5 5 6
1 6 11 9 9 10 11 11 10 9 9 9 9 9 9 5 4 5 7 9 8 11 9 8 7 8 9 9 9 10 10 12 12 12 10 15 6 7 8 7 5 5 6
3 -3 5 10 6 10 11 12 10 9 9 8 8 7 5 5 6 7 7 7 8 7 6 8 9 8 9 9 11 10 8 9 15 19 11 12 11 13 7 6 9 5 6
2 2 1 7 11 9 11 10 9 7 8 8 7 8 8 8 8 9 9 9 8 7 8 7 6 10 10 10 14 10 11 11 7 6 10 20 14 10 16 12 4 10 5
3 2 2 4 12 9 10 12 9 7 8 8 9 9 10 9 9 8 7 7 5 6 0 12 12 10 9 9 8 7 9 11 3 11 10 12 11 21 9 15 14 6 10
1 1 6 6 11 9 10 11 10 10 14 11 9 8 9 9 5 5 6 7 5 6 11 7 10 13 15 8 9 11 9 10 11 10 7 12 12 13 18 13 13 14 8
4 1 7 5 8 9 9 9 9 9 9 10 9 9 12 9 9 9 8 10 9 7 9 12 9 9 12 14 11 10 8 10 12 12 14 10 12 13 14 15 12 13 12
3 3 9 6 7 10 9 10 9 13 12 9 7 8 6 6 10 10 6 7 11 11 9 10 9 7 7 10 13 13 8 11 10 3 9 12 18 13 17 16 20 7 16
4 4 5 10 6 8 10 9 9 9 9 6 7 13 9 7 8 9 12 11 12 10 7 7 8 13 11 11 9 9 9 7 10 7 6 6 16 19 8 14 23 19 5
-1 6 9 9 7 9 9 7 9 7 14 9 10 5 6 10 10 6 5 13 13 10 5 5 8 9 11 8 3 7 7 13 11 9 15 10 23 22 18 12 11 26 13
0 8 8 9 6 7 5 5 1 6 5 14 1 11 5 9 7 11 6 15 16 23 17 8 7 14 6 13 11 8 0 5 15 10 22 25 28 20 22 16 12 31 19
8 5 12 8 3 3 7 9 3 -6 5 10 7 5 7 6 12 7 -2 4 13 1 8 4 8 10 8 11 4 8 7 -3 -5 9 26 29 22 30 18 22 22 21 23
6 9 11 5 1 5 6 12 0 -1 6 0 11 7 2 10 16 11 3 3 22 12 7 7 9 9 9 9 6 11 10 10 1 19 17 27 9 40 26 12 24 18 22
16 16 7 -0 2 1 9 8 10 -2 3 12 8 -1 16 9 16 -2 6 21 20 10 9 10 10 11 10 2 10 12 -2 -2 -9 14 18 11 29 43 32 12 22 22 21
13 5 1 -0 4 4 -8 12 -8 -2 15 16 5 11 8 12 12 2 11 17 16 7 11 12 10 12 2 9 18 6 -9 8 -4 21 11 27 30 39 32 13 19 27 20
2 3 6 3 -0 6 7 10 12 -5 7 11 9 11 10 8 7 16 11 6 8 9 9 13 14 4 11 14 8 14 -8 -1 19 14 36 35 42 27 41 26 22 30 18
Height
3217 3218 3218 3218 3218 3217 3216 3215 3213 3212 3211 3210 3208 3207 3206 3205 3205 3204 3204 3204 3205 3205 3206 3205 3206 3207 3207 3207 3208 3208 3209 3210 3211 3212 3213 3214 3215 3216 3216 3217 3218 3219 3219
3217 3216 3216 3215 3215 3215 3213 3212 3211 3210 3208 3205 3204 3203 3202 3201 3201 3201 3201 3201 3202 3203 3203 3204 3205 3205 3206 3206 3206 3207 3208 3208 3209 3210 3211 3212 3214 3215 3215 3215 3217 3217 3218
3215 3215 3213 3212 3212 3211 3210 3209 3207 3206 3204 3201 3200 3199 3198 3196 3196 3196 3196 3197 3197 3198 3200 3201 3202 3203 3203 3204 3205 3205 3206 3207 3207 3209 3209 3210 3211 3213 3214 3214 3215 3216 3217
3213 3213 3211 3210 3208 3207 3206 3205 3203 3201 3200 3198 3196 3194 3193 3193 3191 3191 3192 3193 3194 3195 3196 3197 3199 3200 3200 3200 3202 3203 3204 3204 3205 3206 3207 3207 3209 3210 3212 3213 3214 3215 3215
3210 3209 3208 3207 3206 3205 3203 3201 3199 3197 3195 3194 3193 3191 3189 3188 3188 3188 3188 3189 3189 3190 3192 3194 3194 3196 3196 3198 3199 3200 3200 3202 3202 3203 3204 3205 3206 3207 3209 3210 3211 3213 3214
3207 3206 3205 3203 3202 3202 3200 3199 3196 3194 3192 3191 3190 3188 3187 3187 3186 3186 3185 3185 3186 3186 3188 3190 3191 3192 3193 3193 3194 3195 3197 3198 3198 3200 3201 3201 3203 3204 3205 3207 3208 3210 3211
3202 3202 3202 3201 3200 3198 3197 3195 3193 3191 3189 3188 3188 3186 3185 3184 3184 3183 3183 3183 3183 3183 3184 3185 3186 3186 3188 3189 3190 3191 3191 3193 3194 3196 3198 3198 3199 3200 3201 3202 3204 3206 3207
3198 3197 3197 3196 3196 3195 3193 3191 3190 3188 3186 3186 3185 3185 3183 3183 3181 3181 3180 3180 3180 3181 3181 3181 3181 3181 3182 3183 3184 3186 3186 3187 3189 3190 3192 3193 3194 3196 3197 3199 3200 3202 3204
3196 3195 3194 3193 3191 3190 3188 3186 3186 3184 3183 3182 3181 3182 3181 3181 3179 3178 3177 3178 3177 3177 3177 3177 3177 3177 3177 3178 3178 3179 3180 3181 3181 3183 3185 3186 3188 3190 3192 3194 3195 3196 3198
3196 3194 3193 3191 3189 3187 3184 3183 3181 3180 3179 3178 3178 3177 3178 3178 3177 3177 3175 3174 3174 3174 3173 3173 3172 3172 3172 3172 3172 3173 3173 3174 3175 3176 3178 3179 3181 3183 3185 3187 3189 3191 3193
3195 3194 3192 3190 3188 3185 3182 3180 3178 3177 3175 3175 3174 3174 3173 3172 3172 3173 3173 3172 3170 3169 3169 3168 3167 3166 3166 3166 3166 3166 3166 3167 3167 3168 3169 3171 3173 3175 3177 3179 3182 3184 3187
3194 3191 3189 3188 3186 3183 3180 3178 3176 3174 3173 3172 3171 3170 3169 3169 3168 3167 3167 3168 3167 3167 3165 3163 3162 3161 3160 3159 3158 3158 3158 3158 3158 3159 3160 3161 3163 3165 3168 3170 3173 3176 3179
3191 3189 3188 3187 3184 3182 3179 3176 3173 3171 3170 3169 3168 3167 3166 3165 3164 3162 3161 3160 3162 3162 3161 3159 3156 3154 3153 3152 3150 3150 3149 3149 3149 3149 3150 3151 3152 3154 3157 3160 3163 3166 3169
3189 3188 3187 3186 3183 3180 3176 3173 3170 3168 3167 3166 3165 3164 3163 3162 3160 3159 3157 3155 3153 3153 3154 3153 3151 3148 3146 3144 3143 3142 3141 3140 3140 3140 3140 3140 3141 3143 3144 3148 3152 3155 3159
3186 3186 3185 3183 3179 3176 3173 3171 3168 3166 3165 3164 3162 3161 3159 3158 3157 3155 3152 3150 3147 3145 3145 3145 3142 3141 3138 3137 3135 3134 3133 3133 3132 3130 3130 3130 3130 3131 3132 3134 3139 3144 3147
3182 3182 3181 3179 3176 3172 3170 3168 3166 3164 3162 3160 3159 3157 3155 3153 3151 3149 3148 3146 3142 3139 3136 3135 3134 3132 3131 3128 3126 3125 3124 3123 3122 3120 3119 3118 3118 3119 3120 3122 3125 3130 3135
3177 3176 3175 3173 3171 3169 3167 3165 3163 3162 3160 3157 3154 3153 3151 3149 3146 3144 3142 3139 3136 3132 3128 3129 3125 3125 3123 3121 3118 3116 3114 3112 3111 3110 3107 3106 3105 3106 3107 3109 3112 3116 3121
3173 3171 3170 3168 3166 3164 3163 3161 3159 3158 3156 3153 3150 3148 3146 3144 3142 3139 3136 3134 3130 3126 3120 3118 3119 3115 3114 3113 3109 3106 3104 3102 3100 3098 3096 3093 3091 3092 3093 3094 3097 3101 3106
3167 3166 3166 3163 3161 3160 3158 3157 3156 3153 3151 3149 3146 3143 3141 3138 3137 3134 3132 3129 3125 3120 3115 3110 3109 3108 3104 3103 3098 3096 3093 3090 3088 3085 3082 3080 3076 3074 3076 3079 3081 3086 3092
3163 3161 3159 3158 3156 3155 3153 3152 3151 3148 3145 3143 3141 3138 3136 3133 3130 3128 3125 3122 3118 3114 3110 3105 3102 3099 3096 3094 3088 3083 3080 3078 3072 3071 3067 3063 3059 3056 3058 3061 3065 3070 3077
3158 3156 3153 3152 3150 3150 3148 3146 3145 3143 3140 3137 3134 3132 3130 3126 3124 3121 3117 3115 3111 3108 3104 3099 3094 3091 3089 3085 3080 3075 3067 3062 3059 3056 3047 3045 3042 3039 3040 3044 3048 3053 3061
3150 3148 3148 3147 3146 3145 3143 3141 3140 3137 3134 3132 3130 3126 3123 3121 3116 3112 3109 3107 3104 3100 3097 3092 3087 3083 3081 3076 3071 3064 3057 3048 3039 3042 3031 3027 3025 3024 3024 3026 3032 3037 3045
3142 3141 3142 3141 3141 3140 3138 3136 3134 3132 3129 3126 3122 3118 3116 3113 3108 3104 3102 3099 3097 3093 3089 3085 3079 3076 3070 3069 3061 3054 3047 3039 3030 3024 3018 3008 3009 3006 3008 3010 3016 3023 3031
3134 3136 3136 3136 3135 3134 3132 3130 3128 3125 3122 3119 3115 3111 3107 3105 3102 3097 3093 3090 3088 3086 3083 3078 3071 3068 3063 3059 3052 3044 3036 3026 3019 3012 3006 2992 2992 2988 2991 2995 3001 3009 3017
3128 3130 3130 3130 3128 3128 3126 3123 3120 3119 3116 3112 3109 3104 3098 3096 3093 3091 3086 3082 3080 3078 3075 3070 3066 3060 3055 3050 3044 3034 3030 3017 3002 2994 2991 2978 2975 2971 2974 2980 2988 2996 3006
3118 3118 3118 3118 3115 3112 3116 3114 3112 3111 3108 3104 3100 3097 3092 3088 3085 3081 3077 3074 3072 3069 3066 3064 3060 3055 3049 3044 3039 3030 3021 3008 2992 2977 2976 2965 2963 2962 2961 2969 2978 2988 2998